NAKANO
         **** Don't distribute anyone except personal use only ****
                (C) Copyright 2009 OAA/ComputingSection
write mail from CFAD0::NAKANO on 2009-01-06 06:55:26(JST).
 


    C/2006 V1 (Catalina)

Epoch 2007 Dec. 6.0 TT = JDT 2454440.5  

T 2007 Nov. 26.54627 TT                                 Nakano

q   2.6747700            (2000.0)            P               Q

z  +0.0038346      Peri.  253.41396     -0.59755977     +0.77315346

 +/-0.0000020      Node   335.72191     -0.38148404     -0.50723886

e   0.9897432      Incl.   31.11932     -0.70526042     -0.38071309

From 598 observations 2006 Nov. 11-2008 Mar. 20, mean residual 0".56.

   (1/a)org.= +0.004492, (1/a)fut.= +0.006529 (+/-0.000002), Q= 8.

   The comet has passed 2.82 AU from Saturn on 2005 Aug. 30 UT and will

   pass 1.34 AU from Jupiter on 2009 Apr. 16 UT.


NAKANO

         **** Don't distribute anyone except personal use only ****

                (C) Copyright 2008 OAA/ComputingSection

write mail from CFAD0::NAKANO on 2008-03-30 06:43:41(JST).

 



    C/2006 V1 (Catalina)                                                  

Epoch 2007 Dec. 6.0 TT = JDT 2454440.5  

T 2007 Nov. 26.55029 TT                                 Nakano

q   2.6748386            (2000.0)            P               Q

z  +0.0038557      Peri.  253.41279     -0.59757643     +0.77314056

 +/-0.0000058      Node   335.72185     -0.38147399     -0.50724764

e   0.9896867      Incl.   31.11925     -0.70525173     -0.38072760

From 467 observations 2006 Nov. 11-2007 Apr. 28, mean residual 0".57.

   (1/a)org.= +0.004513, (1/a)fut.= +0.006550 (+/-0.000006), Q= 6.



NAKANO

         **** Don't distribute anyone except personal use only ****

                (C) Copyright 2007 OAA/ComputingSection

write mail from CFAD0::NAKANO on 2007-05-04 04:01:44(JST).

 オリオンの三ツ星が微かにしか見えない洲本の空で写るのだから,この彗星は

下のCCD全光度よりかなり明るい.予報光度は,HICQ 2007用にグリーンが決定し

たもの.軌道改良に使用された最終観測は,北見の円館金氏による.氏の核光度

は16.5等であった.

 CCD全光度は,2月18日に15.2等(中野;洲本),21日と3月1日に16.0等(

門田健一;上尾),7日に15.6等(浅見敦夫;秦野)と報告されている.



    C/2006 V1 (Catalina)

Epoch 2007 Dec. 6.0 TT = JDT 2454440.5  

T 2007 Nov. 26.55726 TT                                 Nakano

q   2.6749431            (2000.0)            P               Q

z  +0.0038837      Peri.  253.41114     -0.59760045     +0.77312249

 +/-0.0000159      Node   335.72180     -0.38146356     -0.50726059

e   0.9896114      Incl.   31.11889     -0.70523703     -0.38074705

From 253 observations 2006 Nov. 11-2007 Mar. 9, mean residual 0".62.

   (1/a)org.= +0.004541, (1/a)fut.= +0.006578 (+/-0.000016), Q= 6.

 

Date/        TT  R.A.(2000) Decl.     Delta   r     Daily motion  Mag.  Moon Age

              h    h  m       。  ,                      ,  / PA 。  m1      。

2007 Mar. 10 14  10 39.10  +02 16.0   2.776  3.756    12.3 / 259  16.3   81  .65

          11 14  10 38.29  +02 13.7   2.772  3.750    12.3 / 259  16.3   93  .56

          12 14  10 37.49  +02 11.4   2.768  3.743    12.2 / 259  16.3  105  .46

          13 14  10 36.68  +02 09.1   2.764  3.736    12.2 / 259  16.3  118  .36

          14 14  10 35.89  +02 06.9   2.761  3.730    12.1 / 259  16.3  132  .26

          15 14  10 35.09  +02 04.6   2.758  3.723    12.0 / 259  16.3  145  .17

          16 14  10 34.30  +02 02.3   2.755  3.716    12.0 / 259  16.3  159  .09

          17 14  10 33.52  +02 00.0   2.752  3.710    11.9 / 259  16.3  171  .03

          18 14  10 32.74  +01 57.7   2.750  3.703    11.8 / 259  16.2  168  .00

          19 14  10 31.97  +01 55.4   2.748  3.696    11.7 / 258  16.2  154  .00

          20 14  10 31.21  +01 53.0   2.747  3.690    11.5 / 258  16.2  139  .03

          21 14  10 30.46  +01 50.7   2.745  3.683    11.4 / 258  16.2  124  .09

          22 14  10 29.72  +01 48.3   2.744  3.677    11.3 / 258  16.2  109  .17

          23 14  10 28.98  +01 46.0   2.743  3.670    11.1 / 258  16.2   94  .27

          24 14  10 28.26  +01 43.6   2.743  3.664    11.0 / 257  16.2   80  .37

          25 14  10 27.54  +01 41.2   2.743  3.657    10.8 / 257  16.2   67  .48

          26 14  10 26.84  +01 38.7   2.743  3.650    10.6 / 257  16.2   54  .59

          27 14  10 26.15  +01 36.3   2.743  3.644    10.5 / 256  16.2   41  .69

          28 14  10 25.47  +01 33.8   2.744  3.637    10.3 / 256  16.2   29  .77

          29 14  10 24.80  +01 31.3   2.745  3.631    10.1 / 255  16.2   17  .85

          30 14  10 24.15  +01 28.7   2.746  3.624     9.9 / 255  16.2    9  .91

          31 14  10 23.51  +01 26.1   2.747  3.618     9.7 / 254  16.2   13  .96

     Apr.  1 14  10 22.89  +01 23.5   2.749  3.611     9.5 / 254  16.2   23  .99

           2 14  10 22.28  +01 20.9   2.750  3.605     9.3 / 253  16.2   34 1.00

           3 14  10 21.68  +01 18.2   2.752  3.598     9.1 / 253  16.1   46  .99

           4 14  10 21.10  +01 15.5   2.755  3.592     8.9 / 252  16.1   58  .97

           5 14  10 20.54  +01 12.8   2.757  3.586     8.7 / 251  16.1   69  .93

           6 14  10 19.99  +01 10.0   2.760  3.579     8.5 / 251  16.1   81  .87

           7 14  10 19.45  +01 07.2   2.763  3.573     8.2 / 250  16.1   93  .80

           8 14  10 18.94  +01 04.3   2.766  3.566     8.0 / 249  16.1  105  .71

           9 14  10 18.44  +01 01.4   2.770  3.560     7.8 / 248  16.1  118  .62

          10 14  10 17.96  +00 58.4   2.773  3.554     7.6 / 247  16.1  130  .52

          11 14  10 17.49  +00 55.4   2.777  3.547     7.3 / 246  16.1  143  .41

          12 14  10 17.05  +00 52.4   2.781  3.541     7.1 / 244  16.1  156  .31

          13 14  10 16.62  +00 49.3   2.785  3.534     6.9 / 243  16.1  167  .21

          14 14  10 16.21  +00 46.2   2.790  3.528     6.7 / 241  16.1  168  .12

          15 14  10 15.82  +00 43.0   2.794  3.522     6.4 / 240  16.1  156  .05

          16 14  10 15.45  +00 39.7   2.799  3.515     6.2 / 238  16.1  142  .01

          17 14  10 15.10  +00 36.4   2.804  3.509     6.0 / 236  16.1  127  .00

          18 14  10 14.77  +00 33.1   2.809  3.503     5.8 / 234  16.1  112  .02

          19 14  10 14.45  +00 29.7   2.814  3.497     5.6 / 232  16.1   97  .07

          20 14  10 14.16  +00 26.2   2.819  3.490     5.4 / 229  16.1   83  .14

          21 14  10 13.88  +00 22.7   2.825  3.484     5.2 / 227  16.1   69  .23

          22 14  10 13.63  +00 19.1   2.831  3.478     5.1 / 224  16.1   56  .32

          23 14  10 13.40  +00 15.5   2.836  3.472     4.9 / 221  16.1   43  .43

          24 14  10 13.18  +00 11.8   2.842  3.465     4.8 / 218  16.1   31  .53

          25 14  10 12.99  +00 08.0   2.848  3.459     4.6 / 214  16.1   20  .63

          26 14  10 12.81  +00 04.2   2.855  3.453     4.5 / 211  16.1   12  .72

          27 14  10 12.66  +00 00.3   2.861  3.447     4.4 / 207  16.1   14  .80

          28 14  10 12.53  -00 03.6   2.867  3.441     4.4 / 203  16.1   23  .87

          29 14  10 12.41  -00 07.7   2.874  3.435     4.3 / 199  16.1   34  .93

          30 14  10 12.32  -00 11.8   2.881  3.428     4.3 / 195  16.1   45  .97

     May   1 14  10 12.24  -00 15.9   2.887  3.422     4.3 / 191  16.1   56  .99

NAKANO

         **** Don't distribute anyone except personal use only ****

                (C) Copyright 2007 OAA/ComputingSection

write mail from CFAD0::NAKANO on 2007-03-11 00:48:02(JST).



    C/2006 V1 (Catalina)

Epoch 2007 Dec. 6.0 TT = JDT 2454440.5  

T 2007 Nov. 26.55775 TT                                 Nakano

q   2.6749022            (2000.0)            P               Q

z  +0.0038880      Peri.  253.41214     -0.59758788     +0.77313228

 +/-0.0000186      Node   335.72176     -0.38147332     -0.50725493

e   0.9896000      Incl.   31.11879     -0.70524239     -0.38073470

From 239 observations 2006 Nov. 11-2007 Feb. 26, mean residual 0".62.

   (1/a)org.= +0.004545, (1/a)fut.= +0.006583 (+/-0.000019), Q= 6.

                         

NAKANO

         **** Don't distribute anyone except personal use only ****

                (C) Copyright 2007 OAA/ComputingSection

write mail from CFAD0::NAKANO on 2007-03-05 06:22:02(JST).

 

 



    C/2006 V1 (Catalina)

Epoch 2007 Dec. 6.0 TT = JDT 2454440.5  

T 2007 Nov. 26.55775 TT                                 Nakano

q   2.6749022            (2000.0)            P               Q

z  +0.0038880      Peri.  253.41214     -0.59758788     +0.77313228

 +/-0.0000186      Node   335.72176     -0.38147332     -0.50725493

e   0.9896000      Incl.   31.11879     -0.70524239     -0.38073470

From 239 observations 2006 Nov. 11-2007 Feb. 26, mean residual 0".62.

   (1/a)org.= +0.004545, (1/a)fut.= +0.006583 (+/-0.000019), Q= 6.

NAKANO

         **** Don't distribute anyone except personal use only ****

                (C) Copyright 2007 OAA/ComputingSection

write mail from CFAD0::NAKANO on 2007-03-05 06:21:26(JST).

 

    C/2006 V1 (Catalina)

Epoch 2007 Dec. 6.0 TT = JDT 2454440.5  

T 2007 Nov. 26.55243 TT                                 Nakano

q   2.6744580            (2000.0)            P               Q

z  +0.0038855      Peri.  253.42185     -0.59746016     +0.77322980

 +/-0.0000308      Node   335.72139     -0.38155308     -0.50719403

e   0.9896084      Incl.   31.11900     -0.70530745     -0.38061778

From 178 observations 2006 Nov. 11-2007 Feb. 8, mean residual 0".59.

   (1/a)org.= +0.004546, (1/a)fut.= +0.006584 (+/-0.000031), Q= 5.



NAKANO

         **** Don't distribute anyone except personal use only ****

                (C) Copyright 2007 OAA/ComputingSection

write mail from CFAD0::NAKANO on 2007-02-11 07:48:38(JST).

 



    C/2006 V1 (Catalina)

T 2007 Nov. 26.48503 TT                                 Nakano

q   2.6720214            (2000.0)            P               Q

z  +0.0039365      Peri.  253.46616     -0.59685882     +0.77368358

 +/-0.0001035      Node   335.72019     -0.38187410     -0.50689597

e   0.9894817      Incl.   31.12361     -0.70564277     -0.38009235

From 116 observations 2006 Nov. 11-2007 Jan. 2.



NAKANO

